EXS28C EGPF-LPMA

Flight info

Callsign EXS28C
Flight time N/A
Altitude 34000
Route NORBO1J NORBO L186 TRN P600 BLACA DCT NIMAT DCT DUB/M077F340 DCT OMOKO T16 NAVIX/N0433F340 DCT KICAS KICAS1P
Aircraft B738/M-SDE2E3FGHIRWXY/LB1

Departure

Time 2026-05-06 11:06
Airport Glasgow Airport (EGPF)

Arrival

Time N/A
Airport Cristiano Ronaldo International Airport (LPMA)
Time Latitude Longitude Altitude Speed Heading
2026-05-06 10:38 55.86514 -4.43828 28 ft 0 kts 62°
2026-05-06 10:58 55.86513 -4.43830 28 ft 2 kts 62°
2026-05-06 10:58 55.86500 -4.43870 28 ft 4 kts 56°
2026-05-06 10:58 55.86484 -4.43907 28 ft 4 kts 44°
2026-05-06 10:59 55.86463 -4.43934 28 ft 4 kts 14°
2026-05-06 10:59 55.86446 -4.43934 28 ft 0 kts 332°
2026-05-06 11:02 55.86448 -4.43935 28 ft 1 kts 332°
2026-05-06 11:03 55.86480 -4.43966 28 ft 9 kts 332°
2026-05-06 11:03 55.86545 -4.44052 28 ft 14 kts 290°
2026-05-06 11:03 55.86493 -4.44204 28 ft 16 kts 226°
2026-05-06 11:03 55.86408 -4.44363 28 ft 19 kts 226°
2026-05-06 11:04 55.86311 -4.44546 28 ft 21 kts 226°
2026-05-06 11:04 55.86266 -4.44735 28 ft 18 kts 304°
2026-05-06 11:04 55.86355 -4.44869 28 ft 16 kts 350°
2026-05-06 11:04 55.86390 -4.44834 28 ft 0 kts 46°
2026-05-06 11:05 55.86393 -4.44829 28 ft 6 kts 46°
2026-05-06 11:05 55.86596 -4.44449 28 ft 79 kts 46°
2026-05-06 11:05 55.87147 -4.43423 28 ft 144 kts 46°
2026-05-06 11:05 55.87940 -4.41883 232 ft 178 kts 51°
2026-05-06 11:06 55.88768 -4.40254 1223 ft 170 kts 47°
2026-05-06 11:06 55.89575 -4.38757 2136 ft 171 kts 44°
2026-05-06 11:06 55.90471 -4.37124 2446 ft 197 kts 44°
2026-05-06 11:06 55.91475 -4.35276 2647 ft 218 kts 45°
2026-05-06 11:07 55.92579 -4.33274 3121 ft 228 kts 40°
2026-05-06 11:07 55.93973 -4.31853 3462 ft 245 kts 16°
2026-05-06 11:07 55.95675 -4.31640 4186 ft 250 kts 351°
2026-05-06 11:07 55.96774 -4.32286 4673 ft 256 kts 332°
2026-05-06 11:08 55.98370 -4.35455 5719 ft 265 kts 292°
2026-05-06 11:08 55.98620 -4.37643 6270 ft 269 kts 271°
2026-05-06 11:08 55.98173 -4.40889 7064 ft 273 kts 246°
2026-05-06 11:08 55.97317 -4.43914 7863 ft 273 kts 245°
2026-05-06 11:09 55.96441 -4.47032 8651 ft 275 kts 246°
2026-05-06 11:09 55.95575 -4.50095 9411 ft 278 kts 240°
2026-05-06 11:09 55.94316 -4.52729 10148 ft 283 kts 227°
2026-05-06 11:09 55.92883 -4.55237 10544 ft 298 kts 227°
2026-05-06 11:10 55.91341 -4.57965 10706 ft 319 kts 227°
2026-05-06 11:10 55.89718 -4.60867 10953 ft 337 kts 228°
2026-05-06 11:10 55.88052 -4.63860 11488 ft 344 kts 228°
2026-05-06 11:10 55.86356 -4.66894 12175 ft 347 kts 226°
2026-05-06 11:11 55.84403 -4.69447 12850 ft 352 kts 214°
2026-05-06 11:11 55.82265 -4.71749 13557 ft 355 kts 214°
2026-05-06 11:11 55.80132 -4.74020 14163 ft 360 kts 212°
2026-05-06 11:11 55.77769 -4.75571 14732 ft 369 kts 192°
2026-05-06 11:12 55.75186 -4.75850 15374 ft 373 kts 184°
2026-05-06 11:12 55.72580 -4.75890 15956 ft 376 kts 183°
2026-05-06 11:12 55.69950 -4.75911 16523 ft 380 kts 183°
2026-05-06 11:12 55.67301 -4.75954 17106 ft 382 kts 183°
2026-05-06 11:13 55.64630 -4.76026 17703 ft 385 kts 184°
2026-05-06 11:13 55.61942 -4.76116 18267 ft 388 kts 184°
2026-05-06 11:13 55.59238 -4.76213 18772 ft 391 kts 184°
2026-05-06 11:13 55.56510 -4.76385 19252 ft 393 kts 185°
2026-05-06 11:14 55.53769 -4.76609 19744 ft 395 kts 185°
2026-05-06 11:14 55.51013 -4.76845 20220 ft 398 kts 185°
2026-05-06 11:14 55.48238 -4.77077 20695 ft 401 kts 185°
2026-05-06 11:14 55.45442 -4.77303 21171 ft 403 kts 185°
2026-05-06 11:15 55.42628 -4.77525 21624 ft 406 kts 185°
2026-05-06 11:15 55.39798 -4.77744 22083 ft 408 kts 185°
2026-05-06 11:15 55.36946 -4.77965 22529 ft 411 kts 185°
2026-05-06 11:15 55.34084 -4.78205 22966 ft 413 kts 187°
2026-05-06 11:16 55.31252 -4.79035 23392 ft 413 kts 197°
2026-05-06 11:16 55.28535 -4.80670 23798 ft 413 kts 207°
2026-05-06 11:16 55.25972 -4.82944 24182 ft 413 kts 210°
2026-05-06 11:16 55.23418 -4.85301 24536 ft 415 kts 210°
2026-05-06 11:17 55.20844 -4.87625 24894 ft 418 kts 209°
2026-05-06 11:17 55.18243 -4.89925 25252 ft 420 kts 208°
2026-05-06 11:17 55.15626 -4.92197 25618 ft 421 kts 208°
2026-05-06 11:17 55.12990 -4.94470 25964 ft 423 kts 208°
2026-05-06 11:18 55.10314 -4.96780 26298 ft 425 kts 208°
2026-05-06 11:18 55.07662 -4.99084 26628 ft 427 kts 208°
2026-05-06 11:18 55.04998 -5.01408 26944 ft 429 kts 208°
2026-05-06 11:18 55.02320 -5.03744 27265 ft 431 kts 208°
2026-05-06 11:19 54.99637 -5.06079 27563 ft 433 kts 208°
2026-05-06 11:19 54.96933 -5.08428 27852 ft 434 kts 208°
2026-05-06 11:19 54.94228 -5.10774 28164 ft 436 kts 208°
2026-05-06 11:19 54.91501 -5.13134 28457 ft 438 kts 208°
2026-05-06 11:20 54.88774 -5.15486 28756 ft 440 kts 208°
2026-05-06 11:20 54.85940 -5.17583 28992 ft 443 kts 203°
2026-05-06 11:20 54.83054 -5.19470 29305 ft 444 kts 202°
2026-05-06 11:20 54.80151 -5.21309 29718 ft 442 kts 202°
2026-05-06 11:21 54.77278 -5.23118 30162 ft 440 kts 202°
2026-05-06 11:21 54.74405 -5.24935 30455 ft 439 kts 202°
2026-05-06 11:21 54.71530 -5.26765 30730 ft 439 kts 202°
2026-05-06 11:21 54.68670 -5.28595 31023 ft 438 kts 202°
2026-05-06 11:22 54.65815 -5.30427 31349 ft 437 kts 202°
2026-05-06 11:22 54.62971 -5.32253 31629 ft 436 kts 202°
2026-05-06 11:22 54.60129 -5.34077 31897 ft 436 kts 202°
2026-05-06 11:22 54.57284 -5.35900 32186 ft 435 kts 202°
2026-05-06 11:23 54.54449 -5.37714 32477 ft 434 kts 202°
2026-05-06 11:23 54.51622 -5.39520 32736 ft 434 kts 202°
2026-05-06 11:23 54.48791 -5.41325 32988 ft 433 kts 202°
2026-05-06 11:23 54.45976 -5.43118 33249 ft 432 kts 202°
2026-05-06 11:24 54.43156 -5.44910 33502 ft 432 kts 202°
2026-05-06 11:24 54.40330 -5.46704 33730 ft 432 kts 202°
2026-05-06 11:24 54.37518 -5.48487 33977 ft 431 kts 202°
2026-05-06 11:25 54.31861 -5.52066 34062 ft 434 kts 202°
2026-05-06 11:25 54.26178 -5.55649 34046 ft 430 kts 202°
2026-05-06 11:26 54.20577 -5.59170 34053 ft 428 kts 202°
2026-05-06 11:26 54.15033 -5.62646 34051 ft 426 kts 202°
2026-05-06 11:27 54.09445 -5.66141 34052 ft 425 kts 202°